Regional Weather Roundup
Issued by NWS Green Bay, WI

Home | Current Version | Previous Version | Graphics & Text | Print | Product List | Glossary Off
Versions: 1 2 3 4 5 6 7 8 9 10 11 12 13 14 15 16 17 18 19 20 21 22 23 24 25 26 27 28 29 30 31 32 33 34 35 36 37 38 39 40 41 42 43 44 45 46 47 48 49 50

000
ASUS43 KGRB 230600
RWRGRB

NORTH-CENTRAL AND NORTHEAST WISCONSIN REGIONAL WEATHER ROUNDUP
NATIONAL WEATHER SERVICE GREEN BAY WI
100 AM CDT SUN APR 23 2017

WIZ005-009-010>012-018-019-230700-
NORTH CENTRAL WISCONSIN

CITY           SKY/WX    TMP DP  RH WIND       PRES   REMARKS
IRONWOOD       NOT AVBL
MANITOWISH WTR NOT AVBL
ARBOR VITAE    NOT AVBL
EAGLE RIVER    NOT AVBL
LAND O LAKES   NOT AVBL
RHINELANDER    CLEAR     50  33  52 SW7       30.05F
PHILLIPS       CLOUDY    49  33  54 SW5       30.04F
ANTIGO         NOT AVBL
TOMAHAWK       NOT AVBL
MERRILL        NOT AVBL
$$

WIZ013-073-230700-
NORTHEAST WISCONSIN

CITY           SKY/WX    TMP DP  RH WIND       PRES   REMARKS
IRON MOUNTAIN  CLEAR     51  29  42 NW9       30.02S
MARINETTE      CLEAR     49  34  56 SW6       30.06F
$$

WIZ017-030-035>037-045-230700-
CENTRAL WISCONSIN

CITY           SKY/WX    TMP DP  RH WIND       PRES   REMARKS
MEDFORD        NOT AVBL
WAUSAU         CLEAR     53  31  42 SW8       30.07F
MOSINEE        NOT AVBL
MARSHFIELD     CLEAR     48  31  51 SW6       30.08F
WISC RAPIDS    CLEAR     41  33  73 CALM      30.11F
STEVENS POINT  NOT AVBL
WAUPACA        NOT AVBL
SHAWANO        NOT AVBL
CLINTONVILLE   NOT AVBL
WAUTOMA        CLEAR     37  33  85 MISG      30.12S
$$

WIZ038-039-048-051-230700-
FOX VALLEY

CITY           SKY/WX    TMP DP  RH WIND       PRES   REMARKS
NWS GREEN BAY  CLEAR     50  40  68 SW7       30.10S
APPLETON       NOT AVBL
OSHKOSH        CLEAR     50  32  50 SW8       30.10F
FOND DU LAC    CLEAR     45  33  63 SW5       30.12S
$$

WIZ022-050-052-230700-
EAST CENTRAL WISCONSIN

CITY           SKY/WX    TMP DP  RH WIND       PRES   REMARKS
EPHRAIM        NOT AVBL
WASHINGTON ISL NOT AVBL
STURGEON BAY   CLEAR     53  30  41 SW9       30.07F
MANITOWOC      NOT AVBL
SHEBOYGAN      CLEAR     42  31  64 SW6       30.11F
$$

LMZ563-521-522-541>543-230700-
LAKESHORE

STATION/POSITION TIME  TEMP    WIND        PRES    VSBY  WAVE
                       AIR SEA DIR/SP/G                  HT/PER
                 (UTC) (F)     (DEG/KT/KT) (MB)    (MI)  (FT/S)
SHEBOYGAN LKSHOR 0500   51     230/  9/ 11 1020.0F
KEWAUNEE LKSHORE 0530   51     270/  7/ 11 1018.4F
NORTHPORT PIER   0540   56     240/  6/ 15 1016.9F
N MID LAKE BUOY  0450   42 37  200/ 16/ 17 1018.4F         2/ 3
SISTER BAY LKSHO 0506   56     230/ 17/ 20   N/A
CHAMBERS ISLAND  0540   50     200/ 11/ 17 1017.3F
MENOMINEE LKSHOR 0530   52     210/ 11/ 14 1016.9F
$$




USA.gov is the U.S. government's official web portal to all federal, state and local government web resources and services.